When you browse on this site, cookies collect data to enhance your experience and personalize the content and advertising you see.
Visit our Privacy Policy to learn more. By continuing to use the site, you agree to this use of cookies and data.
  • Em Portugal
  • Lista de países
  • Para 7 dias
  • Temperatura da água
  • Mapas de satélite
  • Mapa do tempo
  • Widgets de tempo
  • user-avatar
    Iniciar Sessão

    Previsão horária em Starokrasnoe

    Hoje, 24 Abril, Quarta-feira

    Tempo Temperatura Precipitação Vento Pressão Humidade
    00:00 +11°C° 0 mm 1 m/s 759 mmHg 47%
    01:00 +11°C° 0 mm 1 m/s 759 mmHg 48%
    02:00 +11°C° 0 mm 1 m/s 759 mmHg 49%
    03:00 +10°C° 0 mm 1 m/s 759 mmHg 51%
    04:00 +10°C° 0 mm 1 m/s 759 mmHg 52%
    05:00 +10°C° 0 mm 1 m/s 759 mmHg 54%
    06:00 +12°C° 0 mm 1 m/s 759 mmHg 50%
    07:00 +14°C° 0 mm 1 m/s 760 mmHg 47%
    08:00 +16°C° 0 mm 1 m/s 760 mmHg 44%
    09:00 +18°C° 0 mm 2 m/s 760 mmHg 39%
    10:00 +19°C° 0 mm 2 m/s 759 mmHg 34%
    11:00 +21°C° 0 mm 3 m/s 759 mmHg 29%
    12:00 +21°C° 0 mm 3 m/s 759 mmHg 28%
    13:00 +22°C° 0 mm 3 m/s 759 mmHg 27%
    14:00 +22°C° 0 mm 3 m/s 758 mmHg 27%
    15:00 +22°C° 0 mm 3 m/s 758 mmHg 28%
    16:00 +21°C° 0 mm 3 m/s 758 mmHg 30%
    17:00 +21°C° 0 mm 3 m/s 758 mmHg 31%
    18:00 +19°C° 0 mm 2 m/s 758 mmHg 37%
    19:00 +17°C° 0 mm 2 m/s 757 mmHg 42%
    20:00 +15°C° 0 mm 2 m/s 757 mmHg 47%
    21:00 +14°C° 0 mm 2 m/s 758 mmHg 49%
    22:00 +13°C° 0 mm 2 m/s 758 mmHg 50%
    23:00 +13°C° 0 mm 2 m/s 758 mmHg 52%

    Amanhã, 25 Abril, Quinta-feira

    Tempo Temperatura Precipitação Vento Pressão Humidade
    00:00 +12°C° 0 mm 1 m/s 758 mmHg 53%
    01:00 +12°C° 0 mm 1 m/s 758 mmHg 54%
    02:00 +11°C° 0 mm 1 m/s 758 mmHg 54%
    03:00 +11°C° 0 mm 1 m/s 758 mmHg 56%
    04:00 +11°C° 0 mm 1 m/s 758 mmHg 57%
    05:00 +10°C° 0 mm 1 m/s 758 mmHg 58%
    06:00 +12°C° 0 mm 2 m/s 758 mmHg 55%
    07:00 +14°C° 0 mm 2 m/s 758 mmHg 51%
    08:00 +16°C° 0 mm 2 m/s 758 mmHg 47%
    09:00 +18°C° 0 mm 3 m/s 758 mmHg 42%
    10:00 +20°C° 0 mm 4 m/s 758 mmHg 37%
    11:00 +21°C° 0 mm 4 m/s 758 mmHg 32%
    12:00 +22°C° 0 mm 4 m/s 757 mmHg 31%
    13:00 +22°C° 0 mm 4 m/s 757 mmHg 30%
    14:00 +22°C° 0 mm 5 m/s 756 mmHg 30%
    15:00 +22°C° 0 mm 4 m/s 756 mmHg 31%
    16:00 +22°C° 0 mm 4 m/s 756 mmHg 33%
    17:00 +21°C° 0 mm 4 m/s 755 mmHg 34%
    18:00 +19°C° 0 mm 3 m/s 755 mmHg 40%
    19:00 +17°C° 0 mm 3 m/s 755 mmHg 46%
    20:00 +15°C° 0 mm 2 m/s 755 mmHg 52%
    21:00 +14°C° 0 mm 2 m/s 755 mmHg 55%
    22:00 +14°C° 0 mm 2 m/s 755 mmHg 57%
    23:00 +13°C° 0 mm 2 m/s 755 mmHg 59%

    Depois de amanhã, 26 Abril, Sexta-feira

    Tempo Temperatura Precipitação Vento Pressão Humidade
    00:00 +13°C° 0 mm 2 m/s 755 mmHg 61%
    01:00 +12°C° 0 mm 2 m/s 755 mmHg 63%
    02:00 +12°C° 0 mm 2 m/s 755 mmHg 64%
    03:00 +10°C° 0 mm 2 m/s 755 mmHg 66%
    04:00 +10°C° 0 mm 2 m/s 755 mmHg 67%
    05:00 +10°C° 0 mm 2 m/s 755 mmHg 69%
    06:00 +12°C° 0 mm 3 m/s 754 mmHg 62%
    07:00 +14°C° 0 mm 3 m/s 754 mmHg 56%
    08:00 +17°C° 0 mm 4 m/s 754 mmHg 49%
    09:00 +19°C° 0 mm 4 m/s 754 mmHg 45%
    10:00 +20°C° 0 mm 5 m/s 754 mmHg 40%
    11:00 +21°C° 0 mm 6 m/s 754 mmHg 36%
    12:00 +22°C° 0 mm 6 m/s 753 mmHg 34%
    13:00 +22°C° 0 mm 6 m/s 753 mmHg 33%
    14:00 +23°C° 0 mm 6 m/s 752 mmHg 32%
    15:00 +22°C° 0 mm 5 m/s 752 mmHg 33%
    16:00 +22°C° 0 mm 5 m/s 752 mmHg 33%
    17:00 +21°C° 0 mm 4 m/s 751 mmHg 34%
    18:00 +19°C° 0 mm 4 m/s 751 mmHg 38%
    19:00 +17°C° 0 mm 3 m/s 751 mmHg 43%
    20:00 +14°C° 0 mm 3 m/s 751 mmHg 48%
    21:00 +14°C° 0 mm 3 m/s 751 mmHg 50%
    22:00 +13°C° 0 mm 3 m/s 751 mmHg 52%
    23:00 +13°C° 0 mm 3 m/s 751 mmHg 53%

    27 Abril, Sábado

    Tempo Temperatura Precipitação Vento Pressão Humidade
    00:00 +12°C° 0 mm 3 m/s 750 mmHg 56%
    01:00 +12°C° 0 mm 3 m/s 750 mmHg 58%
    02:00 +12°C° 0 mm 3 m/s 750 mmHg 60%
    03:00 +12°C° 0 mm 3 m/s 749 mmHg 62%
    04:00 +12°C° 0 mm 4 m/s 749 mmHg 65%
    05:00 +12°C° 0 mm 4 m/s 749 mmHg 67%
    06:00 +13°C° 0 mm 4 m/s 748 mmHg 65%
    07:00 +14°C° 0 mm 4 m/s 748 mmHg 63%
    08:00 +15°C° 0 mm 4 m/s 748 mmHg 61%
    09:00 +17°C° 0 mm 5 m/s 748 mmHg 56%
    10:00 +20°C° 0 mm 5 m/s 748 mmHg 51%
    11:00 +21°C° 0 mm 5 m/s 747 mmHg 46%
    12:00 +22°C° 0 mm 5 m/s 747 mmHg 45%
    13:00 +23°C° 0 mm 6 m/s 746 mmHg 44%
    14:00 +24°C° 0 mm 6 m/s 746 mmHg 43%
    15:00 +23°C° 0 mm 5 m/s 746 mmHg 46%
    16:00 +23°C° 0 mm 4 m/s 745 mmHg 49%
    17:00 +23°C° 0 mm 4 m/s 745 mmHg 52%
    18:00 +21°C° 0.6 mm 3 m/s 745 mmHg 61%
    19:00 +19°C° 0.6 mm 3 m/s 745 mmHg 71%
    20:00 +17°C° 0.6 mm 2 m/s 745 mmHg 80%
    21:00 +17°C° 0.3 mm 2 m/s 745 mmHg 83%
    22:00 +16°C° 0.3 mm 2 m/s 745 mmHg 86%
    23:00 +16°C° 0.3 mm 2 m/s 745 mmHg 89%

    28 Abril, Domingo

    Tempo Temperatura Precipitação Vento Pressão Humidade
    00:00 +16°C° 0.5 mm 2 m/s 745 mmHg 91%
    01:00 +15°C° 0.5 mm 2 m/s 745 mmHg 93%
    02:00 +15°C° 0.5 mm 1 m/s 745 mmHg 96%
    03:00 +15°C° 0.4 mm 2 m/s 745 mmHg 96%
    04:00 +15°C° 0.4 mm 2 m/s 745 mmHg 96%
    05:00 +14°C° 0.4 mm 2 m/s 745 mmHg 96%
    06:00 +16°C° 0 mm 2 m/s 745 mmHg 91%
    07:00 +18°C° 0 mm 1 m/s 745 mmHg 87%
    08:00 +19°C° 0 mm 1 m/s 746 mmHg 82%
    09:00 +20°C° 0.2 mm 1 m/s 746 mmHg 77%
    10:00 +22°C° 0.2 mm 1 m/s 746 mmHg 71%
    11:00 +23°C° 0.2 mm 1 m/s 746 mmHg 66%
    12:00 +23°C° 1 mm 1 m/s 746 mmHg 62%
    13:00 +24°C° 1 mm 1 m/s 746 mmHg 58%
    14:00 +24°C° 1 mm 1 m/s 746 mmHg 55%
    15:00 +24°C° 0.5 mm 2 m/s 746 mmHg 59%
    16:00 +23°C° 0.5 mm 2 m/s 746 mmHg 63%
    17:00 +21°C° 0.5 mm 2 m/s 746 mmHg 67%
    18:00 +20°C° 0.2 mm 3 m/s 747 mmHg 73%
    19:00 +19°C° 0.2 mm 3 m/s 747 mmHg 79%
    20:00 +17°C° 0.2 mm 4 m/s 747 mmHg 84%
    21:00 +17°C° 0 mm 4 m/s 748 mmHg 86%
    22:00 +15°C° 0 mm 4 m/s 748 mmHg 88%
    23:00 +14°C° 0 mm 5 m/s 748 mmHg 89%

    29 Abril, Segunda-feira

    Tempo Temperatura Precipitação Vento Pressão Humidade
    00:00 +14°C° 0 mm 5 m/s 748 mmHg 90%
    01:00 +13°C° 0 mm 5 m/s 748 mmHg 91%
    02:00 +12°C° 0 mm 5 m/s 749 mmHg 91%
    03:00 +12°C° 0 mm 5 m/s 749 mmHg 90%
    04:00 +12°C° 0 mm 5 m/s 749 mmHg 89%
    05:00 +11°C° 0 mm 6 m/s 749 mmHg 88%
    06:00 +11°C° 0 mm 6 m/s 750 mmHg 86%
    07:00 +11°C° 0 mm 6 m/s 750 mmHg 84%
    08:00 +11°C° 0 mm 6 m/s 750 mmHg 82%
    09:00 +13°C° 0 mm 6 m/s 750 mmHg 77%
    10:00 +14°C° 0 mm 6 m/s 751 mmHg 73%
    11:00 +15°C° 0 mm 6 m/s 751 mmHg 69%
    12:00 +15°C° 0 mm 6 m/s 751 mmHg 68%
    13:00 +15°C° 0 mm 5 m/s 751 mmHg 67%
    14:00 +15°C° 0 mm 5 m/s 751 mmHg 67%
    15:00 +15°C° 0 mm 5 m/s 751 mmHg 68%
    16:00 +15°C° 0 mm 5 m/s 751 mmHg 69%
    17:00 +14°C° 0 mm 4 m/s 751 mmHg 70%
    18:00 +13°C° 0 mm 4 m/s 751 mmHg 72%
    19:00 +13°C° 0 mm 4 m/s 751 mmHg 74%
    20:00 +12°C° 0 mm 4 m/s 752 mmHg 75%
    21:00 +12°C° 0 mm 4 m/s 752 mmHg 74%
    22:00 +12°C° 0 mm 4 m/s 752 mmHg 73%
    23:00 +12°C° 0 mm 5 m/s 752 mmHg 71%
    Mostrar mais